Time,TemperatureF,DewpointF,PressureIn,WindDirection,WindDirectionDegrees,WindSpeedMPH,WindSpeedGustMPH,Humidity,HourlyPrecipIn,Conditions,Clouds,dailyrainin,SoftwareType,DateUTC
2013-03-01 00:00:00,38.3,37.0,29.50,ESE,118,5.0,7.0,96,0.00,,,0.00,weatherlink.com 1.10,2013-03-01 05:00:00,
2013-03-01 00:15:00,38.6,38.0,29.49,East,93,6.0,9.0,96,0.00,,,0.00,weatherlink.com 1.10,2013-03-01 05:15:00,
2013-03-01 00:30:00,39.1,38.0,29.49,SE,143,6.0,10.0,95,0.00,,,0.00,weatherlink.com 1.10,2013-03-01 05:30:00,
2013-03-01 00:45:00,39.4,38.0,29.50,SE,134,9.0,9.0,93,0.00,,,0.00,weatherlink.com 1.10,2013-03-01 05:45:00,
2013-03-01 01:00:00,39.3,38.0,29.49,SSW,205,3.0,11.0,93,0.00,,,0.00,weatherlink.com 1.10,2013-03-01 06:00:00,
2013-03-01 01:15:00,39.2,37.0,29.50,South,177,8.0,11.0,93,0.00,,,0.00,weatherlink.com 1.10,2013-03-01 06:15:00,
2013-03-01 01:30:00,39.2,37.0,29.50,SSE,166,3.0,13.0,93,0.00,,,0.00,weatherlink.com 1.10,2013-03-01 06:30:00,
2013-03-01 01:45:00,39.1,37.0,29.49,South,190,7.0,11.0,93,0.00,,,0.00,weatherlink.com 1.10,2013-03-01 06:45:00,
2013-03-01 02:00:00,39.0,38.0,29.49,South,175,9.0,15.0,94,0.00,,,0.00,weatherlink.com 1.10,2013-03-01 07:00:00,
2013-03-01 02:15:00,39.0,38.0,29.49,SSE,167,7.0,13.0,94,0.00,,,0.00,weatherlink.com 1.10,2013-03-01 07:15:00,
2013-03-01 02:30:00,38.9,38.0,29.49,SSE,159,6.0,13.0,95,0.00,,,0.00,weatherlink.com 1.10,2013-03-01 07:30:00,
2013-03-01 02:45:00,38.6,37.0,29.50,SSW,212,10.0,14.0,95,0.00,,,0.00,weatherlink.com 1.10,2013-03-01 07:45:00,
2013-03-01 03:00:00,38.6,37.0,29.50,SSE,156,5.0,15.0,94,0.00,,,0.00,weatherlink.com 1.10,2013-03-01 08:00:00,
2013-03-01 03:15:00,38.6,37.0,29.50,South,176,7.0,15.0,94,0.00,,,0.00,weatherlink.com 1.10,2013-03-01 08:15:00,
2013-03-01 03:30:00,38.5,37.0,29.50,South,178,10.0,17.0,93,0.00,,,0.00,weatherlink.com 1.10,2013-03-01 08:30:00,
2013-03-01 03:45:00,38.4,37.0,29.51,SSW,211,7.0,17.0,93,0.00,,,0.00,weatherlink.com 1.10,2013-03-01 08:45:00,
2013-03-01 04:00:00,38.3,36.0,29.52,SSW,203,10.0,14.0,92,0.00,,,0.00,weatherlink.com 1.10,2013-03-01 09:00:00,
2013-03-01 04:15:00,38.1,36.0,29.52,South,181,11.0,17.0,92,0.00,,,0.00,weatherlink.com 1.10,2013-03-01 09:15:00,
2013-03-01 04:30:00,37.9,36.0,29.53,SSW,205,6.0,13.0,91,0.00,,,0.00,weatherlink.com 1.10,2013-03-01 09:30:00,
2013-03-01 04:45:00,37.8,36.0,29.53,SSW,203,9.0,17.0,91,0.00,,,0.00,weatherlink.com 1.10,2013-03-01 09:45:00,
2013-03-01 05:00:00,37.7,35.0,29.53,East,97,3.0,16.0,90,0.00,,,0.00,weatherlink.com 1.10,2013-03-01 10:00:00,
2013-03-01 05:15:00,37.5,35.0,29.53,SSW,200,8.0,15.0,90,0.00,,,0.00,weatherlink.com 1.10,2013-03-01 10:15:00,
2013-03-01 05:30:00,36.9,34.0,29.53,South,183,9.0,14.0,90,0.00,,,0.00,weatherlink.com 1.10,2013-03-01 10:30:00,
2013-03-01 05:45:00,36.5,34.0,29.53,SSW,195,5.0,14.0,90,0.00,,,0.00,weatherlink.com 1.10,2013-03-01 10:45:00,
2013-03-01 06:00:00,36.3,34.0,29.53,South,191,10.0,13.0,90,0.00,,,0.00,weatherlink.com 1.10,2013-03-01 11:00:00,
2013-03-01 06:15:00,36.1,34.0,29.52,SSW,195,8.0,13.0,90,0.00,,,0.00,weatherlink.com 1.10,2013-03-01 11:15:00,
2013-03-01 06:30:00,35.8,33.0,29.53,SSW,201,7.0,15.0,90,0.00,,,0.00,weatherlink.com 1.10,2013-03-01 11:30:00,
2013-03-01 06:45:00,36.5,34.0,29.54,South,187,2.0,10.0,90,0.00,,,0.00,weatherlink.com 1.10,2013-03-01 11:45:00,
2013-03-01 07:00:00,37.4,35.0,29.54,SE,143,11.0,14.0,89,0.00,,,0.00,weatherlink.com 1.10,2013-03-01 12:00:00,
2013-03-01 07:15:00,37.9,35.0,29.54,SSW,195,11.0,14.0,88,0.00,,,0.00,weatherlink.com 1.10,2013-03-01 12:15:00,
2013-03-01 07:30:00,37.2,34.0,29.55,SSE,165,6.0,12.0,89,0.00,,,0.00,weatherlink.com 1.10,2013-03-01 12:30:00,
2013-03-01 07:45:00,37.3,34.0,29.54,SSW,211,13.0,14.0,89,0.00,,,0.00,weatherlink.com 1.10,2013-03-01 12:45:00,
2013-03-01 08:01:00,37.7,35.0,29.54,SSW,198,8.0,13.0,89,0.00,,,0.00,weatherlink.com 1.10,2013-03-01 13:01:00,
2013-03-01 08:16:00,38.2,35.0,29.55,SSW,201,12.0,14.0,87,0.00,,,0.00,weatherlink.com 1.10,2013-03-01 13:16:00,
2013-03-01 08:31:00,38.3,35.0,29.55,SSW,193,12.0,18.0,87,0.00,,,0.00,weatherlink.com 1.10,2013-03-01 13:31:00,
2013-03-01 08:46:00,37.8,34.0,29.56,SW,215,15.0,22.0,85,0.00,,,0.00,weatherlink.com 1.10,2013-03-01 13:46:00,
2013-03-01 09:01:00,37.8,34.0,29.57,SSE,165,11.0,18.0,86,0.00,,,0.00,weatherlink.com 1.10,2013-03-01 14:01:00,
2013-03-01 09:16:00,37.8,34.0,29.57,SSW,207,8.0,18.0,86,0.00,,,0.00,weatherlink.com 1.10,2013-03-01 14:16:00,
2013-03-01 09:31:00,37.7,34.0,29.57,South,183,14.0,21.0,87,0.00,,,0.00,weatherlink.com 1.10,2013-03-01 14:31:00,
2013-03-01 09:46:00,37.8,34.0,29.57,ESE,114,6.0,17.0,87,0.00,,,0.00,weatherlink.com 1.10,2013-03-01 14:46:00,
2013-03-01 10:01:00,37.9,34.0,29.58,SE,129,3.0,17.0,87,0.00,,,0.00,weatherlink.com 1.10,2013-03-01 15:01:00,
2013-03-01 10:16:00,38.0,35.0,29.58,SSW,204,9.0,17.0,87,0.00,,,0.00,weatherlink.com 1.10,2013-03-01 15:16:00,
2013-03-01 10:31:00,38.2,35.0,29.59,South,180,4.0,18.0,87,0.00,,,0.00,weatherlink.com 1.10,2013-03-01 15:31:00,
2013-03-01 10:46:00,38.3,35.0,29.59,SE,124,4.0,16.0,87,0.00,,,0.00,weatherlink.com 1.10,2013-03-01 15:46:00,
2013-03-01 11:01:00,38.1,35.0,29.59,ESE,111,9.0,16.0,89,0.00,,,0.00,weatherlink.com 1.10,2013-03-01 16:01:00,
2013-03-01 11:16:00,38.1,35.0,29.60,SSW,204,7.0,15.0,89,0.00,,,0.00,weatherlink.com 1.10,2013-03-01 16:16:00,
2013-03-01 11:31:00,38.6,36.0,29.60,SE,131,4.0,16.0,89,0.00,,,0.00,weatherlink.com 1.10,2013-03-01 16:31:00,
2013-03-01 11:46:00,38.6,35.0,29.60,SW,217,6.0,19.0,87,0.00,,,0.00,weatherlink.com 1.10,2013-03-01 16:46:00,
2013-03-01 12:01:00,38.6,35.0,29.59,SE,138,13.0,21.0,87,0.00,,,0.00,weatherlink.com 1.10,2013-03-01 17:01:00,
2013-03-01 12:16:00,38.8,35.0,29.59,SE,139,12.0,20.0,87,0.00,,,0.00,weatherlink.com 1.10,2013-03-01 17:16:00,
2013-03-01 12:31:00,38.7,35.0,29.59,SE,137,16.0,18.0,86,0.00,,,0.00,weatherlink.com 1.10,2013-03-01 17:31:00,
2013-03-01 12:46:00,38.5,35.0,29.59,SE,142,6.0,17.0,86,0.00,,,0.00,weatherlink.com 1.10,2013-03-01 17:46:00,
2013-03-01 13:01:00,38.2,34.0,29.59,South,191,6.0,18.0,85,0.00,,,0.00,weatherlink.com 1.10,2013-03-01 18:01:00,
2013-03-01 13:16:00,38.1,34.0,29.59,SSW,201,10.0,18.0,85,0.00,,,0.00,weatherlink.com 1.10,2013-03-01 18:16:00,
2013-03-01 13:31:00,38.3,34.0,29.59,SW,221,9.0,21.0,83,0.00,,,0.00,weatherlink.com 1.10,2013-03-01 18:31:00,
2013-03-01 13:46:00,38.4,33.0,29.59,SSW,193,7.0,20.0,82,0.00,,,0.00,weatherlink.com 1.10,2013-03-01 18:46:00,
2013-03-01 14:01:00,38.7,34.0,29.59,SSW,200,13.0,19.0,82,0.00,,,0.00,weatherlink.com 1.10,2013-03-01 19:01:00,
2013-03-01 14:16:00,38.9,33.0,29.60,SSW,210,14.0,18.0,80,0.00,,,0.00,weatherlink.com 1.10,2013-03-01 19:16:00,
2013-03-01 14:31:00,38.9,33.0,29.60,South,186,11.0,22.0,80,0.00,,,0.00,weatherlink.com 1.10,2013-03-01 19:31:00,
2013-03-01 14:46:00,39.0,34.0,29.60,SSW,206,11.0,19.0,81,0.00,,,0.00,weatherlink.com 1.10,2013-03-01 19:46:00,
2013-03-01 15:01:00,38.8,33.0,29.60,South,191,12.0,19.0,79,0.00,,,0.00,weatherlink.com 1.10,2013-03-01 20:01:00,
2013-03-01 15:16:00,38.7,33.0,29.60,SSW,193,15.0,20.0,81,0.00,,,0.00,weatherlink.com 1.10,2013-03-01 20:16:00,
2013-03-01 15:31:00,38.6,34.0,29.60,SW,229,14.0,18.0,82,0.00,,,0.00,weatherlink.com 1.10,2013-03-01 20:31:00,
2013-03-01 15:46:00,38.5,34.0,29.61,SSW,202,16.0,17.0,83,0.00,,,0.00,weatherlink.com 1.10,2013-03-01 20:46:00,
2013-03-01 16:01:00,38.4,34.0,29.61,SSW,208,13.0,17.0,83,0.00,,,0.00,weatherlink.com 1.10,2013-03-01 21:01:00,
2013-03-01 16:16:00,38.2,33.0,29.61,South,191,11.0,19.0,82,0.00,,,0.00,weatherlink.com 1.10,2013-03-01 21:16:00,
2013-03-01 16:31:00,38.2,34.0,29.61,SSW,202,7.0,16.0,84,0.00,,,0.00,weatherlink.com 1.10,2013-03-01 21:31:00,
2013-03-01 16:46:00,38.1,34.0,29.62,SW,215,11.0,14.0,84,0.00,,,0.00,weatherlink.com 1.10,2013-03-01 21:46:00,
2013-03-01 17:01:00,38.1,33.0,29.62,SSW,198,9.0,16.0,83,0.00,,,0.00,weatherlink.com 1.10,2013-03-01 22:01:00,
2013-03-01 17:16:00,38.0,33.0,29.63,SSW,211,7.0,14.0,83,0.00,,,0.00,weatherlink.com 1.10,2013-03-01 22:16:00,
2013-03-01 17:31:00,38.0,34.0,29.64,SSW,203,4.0,12.0,84,0.00,,,0.00,weatherlink.com 1.10,2013-03-01 22:31:00,
2013-03-01 17:46:00,37.9,34.0,29.64,South,191,4.0,13.0,84,0.00,,,0.00,weatherlink.com 1.10,2013-03-01 22:46:00,
2013-03-01 18:01:00,37.8,33.0,29.64,South,173,6.0,13.0,84,0.00,,,0.00,weatherlink.com 1.10,2013-03-01 23:01:00,
2013-03-01 18:16:00,37.8,33.0,29.65,SW,215,10.0,11.0,84,0.00,,,0.00,weatherlink.com 1.10,2013-03-01 23:16:00,
2013-03-01 18:31:00,37.7,33.0,29.65,SSW,212,9.0,13.0,84,0.00,,,0.00,weatherlink.com 1.10,2013-03-01 23:31:00,
2013-03-01 18:46:00,37.6,33.0,29.65,SSW,200,7.0,13.0,84,0.00,,,0.00,weatherlink.com 1.10,2013-03-01 23:46:00,
2013-03-01 19:01:00,37.5,33.0,29.65,SSW,199,9.0,11.0,85,0.00,,,0.00,weatherlink.com 1.10,2013-03-02 00:01:00,
2013-03-01 19:16:00,37.4,33.0,29.65,South,187,7.0,15.0,84,0.00,,,0.00,weatherlink.com 1.10,2013-03-02 00:16:00,
2013-03-01 19:31:00,37.4,33.0,29.65,SSW,194,9.0,13.0,85,0.00,,,0.00,weatherlink.com 1.10,2013-03-02 00:31:00,
2013-03-01 19:46:00,37.4,33.0,29.65,SSW,194,6.0,10.0,85,0.00,,,0.00,weatherlink.com 1.10,2013-03-02 00:46:00,
2013-03-01 20:01:00,37.5,33.0,29.65,SSE,164,5.0,11.0,84,0.00,,,0.00,weatherlink.com 1.10,2013-03-02 01:01:00,
2013-03-01 20:17:00,37.5,33.0,29.65,South,190,6.0,11.0,84,0.00,,,0.00,weatherlink.com 1.10,2013-03-02 01:17:00,
2013-03-01 20:32:00,37.5,33.0,29.65,SSW,210,2.0,9.0,84,0.00,,,0.00,weatherlink.com 1.10,2013-03-02 01:32:00,
2013-03-01 20:47:00,37.6,34.0,29.65,ESE,122,4.0,8.0,86,0.00,,,0.00,weatherlink.com 1.10,2013-03-02 01:47:00,
2013-03-01 21:02:00,37.7,35.0,29.65,ESE,115,8.0,9.0,88,0.00,,,0.00,weatherlink.com 1.10,2013-03-02 02:02:00,
2013-03-01 21:17:00,37.1,35.0,29.65,SSW,193,6.0,11.0,90,0.00,,,0.00,weatherlink.com 1.10,2013-03-02 02:17:00,
2013-03-01 21:32:00,36.7,34.0,29.65,SW,233,12.0,12.0,90,0.00,,,0.00,weatherlink.com 1.10,2013-03-02 02:32:00,
2013-03-01 21:47:00,34.9,33.0,29.65,SW,217,8.0,12.0,93,0.00,,,0.00,weatherlink.com 1.10,2013-03-02 02:47:00,
2013-03-01 22:02:00,34.6,33.0,29.65,SSW,204,7.0,13.0,94,0.01,,,0.01,weatherlink.com 1.10,2013-03-02 03:02:00,
2013-03-01 22:17:00,35.0,34.0,29.65,SSW,194,2.0,11.0,95,0.01,,,0.01,weatherlink.com 1.10,2013-03-02 03:17:00,
2013-03-01 22:32:00,35.3,34.0,29.65,South,170,7.0,9.0,95,0.01,,,0.01,weatherlink.com 1.10,2013-03-02 03:32:00,
2013-03-01 22:47:00,35.4,34.0,29.65,SSE,153,6.0,10.0,95,0.01,,,0.01,weatherlink.com 1.10,2013-03-02 03:47:00,
2013-03-01 23:02:00,35.3,34.0,29.65,SSW,203,10.0,14.0,94,0.01,,,0.02,weatherlink.com 1.10,2013-03-02 04:02:00,
2013-03-01 23:17:00,35.4,34.0,29.65,SSW,210,7.0,10.0,95,0.01,,,0.02,weatherlink.com 1.10,2013-03-02 04:17:00,
2013-03-01 23:32:00,35.5,34.0,29.64,SSW,204,5.0,8.0,94,0.01,,,0.02,weatherlink.com 1.10,2013-03-02 04:32:00,
2013-03-01 23:47:00,35.7,34.0,29.64,SSW,211,5.0,9.0,94,0.01,,,0.02,weatherlink.com 1.10,2013-03-02 04:47:00,